Theta_e
288 281 279 281 283 283 283 283 283 288 293 294 295 295 299 303 305 305 307 310 311 311 314 321 325 328 329 329 328 326 327 328 328 327 327 327 327 329 327 329 328 328 328 328
283 279 284 286 285 282 281 279 280 284 289 289 288 288 292 295 299 303 304 307 309 310 312 314 321 326 328 328 329 327 327 327 327 327 327 327 327 328 328 329 329 329 329 329
279 282 285 283 282 280 280 279 279 280 284 286 284 283 287 292 295 297 301 304 306 308 309 311 319 323 327 327 328 328 328 327 327 327 327 327 328 326 327 328 328 331 330 330
282 285 283 281 280 282 277 284 284 282 279 274 283 274 282 287 290 293 297 300 303 304 308 311 311 321 323 327 329 329 329 328 327 328 326 326 325 324 327 327 329 330 332 330
279 281 281 279 281 284 279 285 282 282 281 278 278 274 279 286 285 290 294 297 301 304 306 310 311 314 323 324 327 329 328 328 328 328 328 327 326 329 328 327 327 330 330 329
282 287 284 283 285 285 286 282 282 281 278 271 277 277 275 281 285 288 294 295 299 303 306 308 312 313 313 323 324 327 327 328 329 327 328 328 327 329 327 326 327 328 329 325
279 281 285 286 281 284 283 277 268 265 267 267 278 277 278 284 287 288 290 293 297 298 301 304 308 310 311 315 325 325 326 326 328 327 327 329 331 330 327 327 327 327 319 315
271 269 281 286 282 278 280 278 269 264 268 270 277 274 277 287 290 293 294 293 297 298 300 303 305 307 311 311 323 326 324 323 326 328 329 330 330 329 324 323 318 315 312 311
269 272 281 282 283 283 278 271 280 273 274 269 273 278 283 287 289 289 292 293 294 296 299 300 302 304 309 311 313 320 324 324 325 325 320 319 318 316 313 312 312 310 309 308
276 268 278 281 284 284 281 283 272 273 261 260 271 273 274 283 286 289 289 289 292 294 296 298 300 302 306 306 308 313 316 314 313 313 313 310 309 308 307 306 304 304 303 304
280 272 273 277 274 276 277 277 279 277 273 269 268 271 283 282 283 283 287 289 289 292 294 295 297 299 301 301 304 305 308 309 309 306 305 303 302 303 303 303 303 303 302 301
279 272 269 270 279 281 279 277 277 271 271 274 273 272 284 284 285 287 287 288 290 292 293 294 294 296 298 298 299 299 302 303 304 304 303 300 300 299 298 297 296 296 296 296
277 270 264 268 273 279 273 279 279 277 276 270 268 271 284 284 284 285 286 287 289 290 291 293 292 293 295 295 295 296 297 299 300 300 300 300 298 298 295 294 294 293 292 292
284 274 270 266 268 272 271 273 275 270 268 269 270 272 277 279 280 283 285 287 288 289 292 292 291 292 292 292 292 292 293 295 296 297 295 294 293 293 292 291 291 290 290 289
279 269 271 274 275 274 273 273 273 271 272 269 271 272 276 279 280 282 284 286 287 288 290 291 290 290 289 289 289 289 290 291 292 291 290 289 289 289 288 287 287 287 286 286
280 272 273 271 275 275 272 274 273 274 274 273 274 273 280 282 283 282 284 286 286 288 290 291 290 289 288 288 287 287 287 288 289 287 287 287 288 287 286 285 285 284 284 284
276 272 269 267 274 273 267 271 272 273 275 275 271 276 281 281 283 284 285 286 287 289 291 290 288 288 287 286 286 285 285 286 285 284 284 284 284 284 283 283 283 282 282 282
276 273 273 268 266 259 271 278 276 275 277 279 279 281 282 283 285 286 287 287 288 290 292 289 287 285 284 284 284 284 284 284 284 283 283 282 283 282 282 281 281 281 281 281
278 275 269 263 259 269 273 277 276 273 275 281 280 281 283 283 284 283 287 288 289 289 291 288 286 283 282 283 283 283 283 282 282 281 281 281 282 281 280 280 279 280 280 280
276 276 272 263 259 256 271 280 281 282 271 282 284 283 280 282 276 279 286 288 287 286 285 284 282 283 282 282 283 283 282 283 280 280 280 281 281 280 279 279 279 280 280 279
263 265 267 267 266 267 277 278 280 268 274 282 282 281 282 280 282 284 287 285 285 283 282 284 283 282 282 283 284 284 282 281 281 280 279 279 280 279 279 279 279 278 278 278
267 263 264 263 262 262 277 276 273 278 281 280 280 282 283 283 286 287 287 283 283 283 284 284 283 282 283 285 284 280 279 279 278 278 278 278 278 279 279 278 278 278 278 277
268 274 270 272 271 278 278 278 280 280 280 280 279 282 284 285 285 284 284 284 284 284 284 284 285 282 281 282 281 279 278 278 277 277 277 277 277 279 279 278 277 277 277 276
274 277 271 271 275 277 279 281 281 281 281 281 281 281 284 285 285 284 284 284 283 283 284 283 282 281 280 281 281 280 279 278 277 275 275 275 275 275 275 278 278 277 276 276
276 275 272 273 278 279 280 280 279 281 281 281 281 282 283 284 284 284 283 282 282 281 281 281 280 280 279 279 279 278 278 277 276 275 274 274 274 273 273 274 273 275 274 276
277 275 273 272 278 278 279 278 280 279 280 280 281 280 283 284 283 283 281 281 281 280 279 278 278 278 277 277 277 277 276 275 274 272 272 272 271 271 272 271 270 278 278 278
Wind_Speed
6 5 3 9 7 10 12 11 14 16 13 7 6 9 11 10 16 14 13 15 17 12 9 17 15 14 14 11 13 15 17 17 13 11 10 9 11 8 5 5 8 9 8 9
7 3 9 11 10 9 9 10 13 15 14 11 9 13 13 17 17 16 15 14 8 7 9 9 16 16 15 15 14 13 16 16 13 11 10 9 9 8 6 6 5 7 8 7
10 6 9 9 10 11 9 9 8 10 18 14 11 16 12 16 20 20 20 18 13 11 9 9 15 18 17 14 14 15 14 15 14 13 9 8 6 4 7 7 8 7 8 7
7 6 10 9 10 9 9 11 10 8 4 5 5 10 6 11 15 22 21 20 17 15 15 12 6 14 16 16 14 13 13 14 14 15 11 14 10 10 8 8 4 6 7 7
9 12 10 10 8 6 6 10 11 13 11 8 10 8 6 10 17 14 19 25 21 20 19 16 11 7 15 16 14 12 12 13 16 17 14 12 12 9 8 4 7 6 6 7
12 13 9 6 12 10 9 10 11 10 7 7 12 11 6 11 12 8 8 7 19 20 19 19 17 10 6 9 10 11 12 14 15 16 17 16 15 11 7 6 7 6 5 5
13 4 5 3 9 7 5 5 4 2 2 6 4 12 14 13 13 6 7 7 6 7 6 6 11 8 5 6 11 11 13 13 12 17 18 18 16 15 9 7 6 9 5 4
5 7 2 3 3 6 12 6 4 6 2 11 16 7 6 12 14 2 5 6 5 8 9 8 10 12 8 10 8 9 9 8 9 12 16 15 11 6 3 7 8 6 6 6
4 5 16 14 10 6 3 3 8 9 12 5 6 12 14 16 4 2 8 15 14 14 11 11 12 12 11 5 5 4 9 9 7 8 6 6 6 9 9 11 10 9 9 7
4 8 9 9 9 9 10 7 4 3 3 5 6 10 7 10 14 14 12 8 7 8 10 9 10 10 7 7 8 6 5 8 8 9 9 8 9 9 10 10 11 10 10 9
3 3 6 9 4 7 6 5 4 4 4 5 9 5 2 4 12 9 7 6 3 3 4 5 6 7 6 6 6 5 4 8 12 12 11 12 11 11 12 10 9 8 9 7
6 4 5 10 18 17 13 14 10 4 8 6 12 13 17 15 12 16 17 14 8 5 4 3 4 7 3 4 5 5 1 7 7 8 16 18 13 13 12 11 10 9 8 9
1 5 6 10 6 5 2 3 6 8 9 11 8 8 9 19 20 16 14 9 9 5 2 4 4 5 2 1 2 4 4 3 8 11 10 14 20 16 14 14 12 11 8 9
8 4 9 11 13 10 21 20 16 3 7 13 17 26 26 24 22 22 14 14 12 6 5 4 3 3 0 1 1 2 3 2 6 8 11 12 12 11 12 11 11 14 11 7
5 7 8 15 18 19 23 23 22 18 22 17 29 25 28 25 23 16 16 19 18 10 7 5 4 4 3 3 3 3 3 3 5 10 12 12 12 13 12 12 13 11 10 9
7 13 7 17 16 19 27 27 26 28 28 21 27 33 31 25 21 22 21 20 17 8 8 6 5 6 5 5 5 5 5 5 6 10 12 11 12 12 11 12 11 12 11 10
9 3 4 14 9 13 18 17 16 15 18 17 20 28 21 21 19 15 14 14 8 5 5 5 6 6 5 5 7 7 7 7 7 8 10 12 11 11 9 11 10 11 7 9
8 2 3 10 6 7 11 7 8 14 18 13 17 18 16 15 9 10 7 6 7 5 4 6 6 6 6 8 9 8 8 9 8 8 10 9 10 11 10 9 8 11 5 9
7 3 5 3 3 17 17 4 2 1 7 9 12 7 7 7 15 21 7 9 12 10 7 8 7 8 7 9 9 10 9 9 9 7 8 7 6 9 9 9 8 6 8 7
3 5 5 2 3 8 7 4 3 1 9 5 6 4 6 17 17 14 8 6 4 10 10 12 10 9 9 8 10 11 10 7 9 7 6 7 7 6 7 7 8 4 7 8
1 3 12 10 9 11 14 11 3 3 6 2 2 5 9 16 12 14 10 6 6 7 11 12 10 9 10 7 9 9 6 7 8 5 8 7 5 7 6 5 4 6 7 7
8 6 5 4 5 13 2 4 7 5 3 3 5 7 12 14 17 14 4 7 8 8 9 9 9 10 9 7 8 6 6 5 6 6 8 7 5 4 5 7 5 6 7 6
6 8 5 11 11 8 5 9 8 7 9 9 8 13 8 9 5 5 5 5 6 8 7 4 9 10 7 7 5 8 6 7 7 5 7 6 7 4 6 6 6 5 5 4
6 7 6 4 8 14 16 12 12 12 13 11 10 9 5 5 2 2 4 3 2 4 7 6 8 8 6 5 6 7 8 8 7 6 6 5 5 4 4 3 3 4 4 4
6 5 6 12 21 24 19 12 7 9 6 10 10 6 6 6 4 6 6 7 7 7 5 7 8 8 8 6 6 6 8 9 8 7 6 6 5 6 5 4 3 3 3 3
9 9 10 12 10 7 7 3 4 8 9 8 7 6 5 5 7 6 5 3 5 5 5 5 6 7 6 6 6 7 8 8 8 6 4 3 3 1 3 4 4 9 7 5
Wind_Direction
315 299 312 0 356 333 327 321 309 304 315 352 288 312 299 282 285 284 284 232 231 232 211 187 182 183 182 190 193 178 177 180 182 186 185 188 204 224 196 203 186 181 181 187
349 324 7 337 337 328 309 303 300 297 305 314 319 294 292 286 287 285 285 291 275 253 247 203 178 177 180 196 191 189 183 179 183 189 191 196 201 214 197 200 200 183 181 188
315 345 346 328 325 309 292 276 277 290 317 314 306 284 267 265 271 281 274 276 288 294 274 262 180 179 183 185 196 198 188 176 180 184 190 196 204 205 201 214 201 197 183 183
287 345 331 317 310 318 300 352 330 297 281 264 355 290 292 306 257 245 244 262 264 275 282 284 245 186 180 186 198 196 190 177 174 173 188 198 200 200 212 202 181 184 171 172
280 329 342 323 301 351 282 357 316 305 296 271 256 277 227 224 260 265 235 237 235 241 251 262 279 192 194 190 187 189 190 176 171 176 188 194 201 204 196 186 174 173 165 176
271 266 272 275 308 302 296 298 288 261 265 256 235 231 200 211 235 242 283 277 225 228 226 242 253 268 202 188 173 175 186 194 177 179 191 198 202 203 188 191 182 168 131 98
311 330 145 306 297 244 239 295 303 308 224 240 246 222 247 302 284 285 292 296 15 8 30 275 253 232 293 202 172 181 187 193 182 182 188 202 202 200 184 167 153 139 121 97
340 324 169 109 288 302 300 258 241 301 290 313 308 260 258 226 249 350 272 241 26 10 4 16 0 343 238 194 184 173 172 198 183 180 191 199 202 194 136 119 112 97 97 97
324 260 336 306 286 293 263 265 265 281 286 270 223 293 304 292 275 250 11 32 21 6 4 1 355 342 345 9 98 187 179 180 179 170 122 96 115 117 121 111 110 116 113 115
325 298 269 296 322 260 234 269 317 242 275 262 254 248 267 31 35 23 14 17 11 359 348 345 342 339 6 3 352 39 85 114 101 101 109 105 97 100 103 109 106 108 108 117
293 217 294 335 266 278 310 275 254 281 260 272 282 258 141 90 350 326 303 317 299 278 302 320 326 325 5 11 353 347 108 133 137 130 120 111 106 100 98 96 101 110 104 104
202 257 290 264 273 269 266 282 300 298 303 286 277 267 289 307 342 333 321 309 299 254 251 294 314 310 337 23 336 312 168 133 141 144 142 129 117 111 104 98 85 79 81 95
268 265 310 319 337 12 37 305 296 301 286 262 289 274 289 308 306 304 295 300 304 291 296 288 294 290 291 359 337 317 313 138 136 131 141 134 130 132 131 124 117 97 105 96
283 229 227 252 254 301 294 286 278 210 263 279 262 270 283 282 284 286 305 315 312 297 241 229 244 250 87 8 45 340 342 53 114 126 125 112 110 113 114 105 117 113 113 108
206 256 253 258 270 276 272 271 271 257 254 249 266 269 263 269 274 291 298 293 288 285 262 231 213 197 155 126 92 60 22 47 109 113 105 102 103 107 113 115 106 104 96 81
193 271 284 278 270 272 273 268 261 258 254 250 252 264 261 283 287 274 270 273 271 263 273 209 174 163 179 153 127 102 69 21 87 103 102 106 110 109 108 102 104 101 103 112
272 253 294 279 283 310 286 259 248 256 254 251 252 255 278 270 266 265 257 265 257 271 279 187 164 164 153 138 125 107 95 82 76 86 101 103 105 106 108 111 97 99 117 121
251 280 249 288 332 257 239 274 271 278 263 251 265 270 272 279 315 313 313 299 289 258 210 158 152 122 114 115 109 105 98 94 93 88 95 89 106 102 98 96 112 105 142 99
234 230 276 254 231 281 290 313 24 12 298 239 251 273 289 322 317 286 273 273 262 222 178 141 129 121 125 121 120 109 97 100 92 84 87 90 105 118 114 116 123 113 107 106
248 202 226 6 260 259 244 129 102 234 282 218 185 283 354 328 286 278 271 304 341 105 115 117 117 123 121 116 116 115 113 107 116 107 102 99 86 107 112 111 119 120 101 99
179 246 228 239 257 270 253 260 88 120 279 42 359 302 294 289 272 281 306 62 81 106 118 121 126 135 119 119 113 112 121 138 116 139 107 97 100 104 107 102 98 98 103 102
180 164 202 188 224 266 218 107 175 231 302 244 257 259 311 294 283 259 194 128 121 117 121 114 132 123 106 115 110 117 113 108 109 124 105 110 100 97 97 110 109 107 108 123
243 200 196 196 226 238 205 232 256 284 279 284 292 298 317 318 353 43 85 113 134 138 135 114 129 118 121 126 123 129 145 131 121 123 128 127 96 109 125 122 114 120 117 152
251 236 233 47 271 253 260 275 270 266 265 275 265 266 287 294 147 67 144 131 125 143 150 144 130 127 136 148 150 140 146 135 126 121 110 113 134 125 101 129 138 117 143 160
197 159 207 256 274 279 271 267 302 301 278 294 277 209 238 290 180 189 178 161 166 166 153 151 152 157 166 161 153 142 140 138 142 142 148 153 157 163 154 126 132 127 77 95
188 209 193 230 222 229 264 250 317 311 295 282 288 268 243 196 197 176 174 182 142 150 126 120 139 140 144 156 154 157 158 156 148 146 158 167 135 107 103 100 65 58 88 113